Weather History for Memphis, TN

Change the Weather History Date:

Saturday, May 12, 2012

  Actual Average Record
Temperature  
Mean Temperature 70 °F 71 °F  
Max Temperature 74 °F 80 °F 93 °F (2005)
Min Temperature 65 °F 61 °F 44 °F (1960)
Degree Days  
Heating Degree Days 0 1  
Month to date heating degree days 0 13  
Since 1 July heating degree days 2171 2958  
Cooling Degree Days 5 6  
Month to date cooling degree days 124 61  
Year to date cooling degree days 346 156  
Growing Degree Days 18 (Base 50)    
Moisture  
Dew Point 58 °F    
Average Humidity 70    
Maximum Humidity 87    
Minimum Humidity 53    
Precipitation  
Precipitation 0.05 in 0.18 in 1.82 in (1971)
Month to date precipitation 1.08 2.23  
Year to date precipitation 11.23 21.26  
Snow  
Snow 0.00 in 0.00 in - ()
Month to date snowfall 0.0 0.0  
Since 1 July snowfall 1.4 3.8  
Snow Depth 0.00 in    
Sea Level Pressure  
Sea Level Pressure 30.09 in    
Wind  
Wind Speed 9 mph (NE)    
Max Wind Speed 17 mph    
Max Gust Speed 21 mph    
Visibility 10 miles    
Events Rain    
T = Trace of Precipitation, MM = Missing Value Source: NWS Daily Summary

Daily Weather History Graph

Daily Weather History Graph

Search for Another Location

Airport:

Trip Planner

Search our weather history database for the weather conditions in past years. The results will help you decide how hot, cold, wet, or windy it might be!

Date:

Astronomy

May. 12, 2012 Rise Set
Actual Time 5:58 AM CDT 7:54 PM CDT
Civil Twilight 5:30 AM CDT 8:22 PM CDT
Nautical Twilight 4:56 AM CDT 8:56 PM CDT
Astronomical Twilight 4:20 AM CDT 9:33 PM CDT
Moon 1:13 AM CDT (5/12) 12:31 PM CDT (5/12)
Length of Visible Light 14h 52m
Length of Day
13h 56m
Waning Gibbous, 52% of the Moon is Illuminated
May 12
Waning Gibbous
May 12
Last Quarter
May 20
New
May 28
First Quarter
Jun 4
Full

Hourly Weather History & Observations

Time (CDT) Temp. Dew Point Humidity Pressure Visibility Wind Dir Wind Speed Gust Speed Precip Events Conditions
12:54 AM 70.0 °F 51.1 °F 51% 30.10 in 10.0 mi ESE 6.9 mph - N/A   Overcast
1:54 AM 68.0 °F 54.0 °F 61% 30.11 in 10.0 mi South 9.2 mph - 0.00 in Rain Light Rain
2:54 AM 66.0 °F 55.0 °F 68% 30.09 in 10.0 mi South 6.9 mph - 0.00 in   Overcast
3:54 AM 66.0 °F 55.0 °F 68% 30.10 in 10.0 mi SSW 4.6 mph - N/A   Overcast
4:54 AM 66.9 °F 55.9 °F 68% 30.10 in 10.0 mi Variable 4.6 mph - N/A   Overcast
5:54 AM 66.9 °F 55.0 °F 66% 30.11 in 10.0 mi East 4.6 mph - N/A   Overcast
6:54 AM 66.0 °F 57.0 °F 73% 30.13 in 10.0 mi ESE 3.5 mph - 0.00 in Rain Light Rain
7:54 AM 66.0 °F 57.0 °F 73% 30.14 in 10.0 mi NE 8.1 mph - 0.00 in Rain Light Rain
8:54 AM 64.9 °F 57.9 °F 78% 30.14 in 10.0 mi NE 9.2 mph - 0.00 in Rain Light Rain
9:54 AM 66.9 °F 57.9 °F 73% 30.13 in 10.0 mi NE 8.1 mph - 0.00 in   Overcast
10:54 AM 69.1 °F 57.9 °F 68% 30.12 in 10.0 mi NE 10.4 mph - N/A   Mostly Cloudy
11:54 AM 72.0 °F 57.0 °F 59% 30.12 in 10.0 mi NE 12.7 mph - N/A   Overcast
12:54 PM 72.0 °F 57.0 °F 59% 30.10 in 10.0 mi ENE 12.7 mph - N/A   Overcast
1:54 PM 72.0 °F 55.9 °F 57% 30.09 in 10.0 mi ENE 11.5 mph - N/A   Overcast
2:54 PM 69.1 °F 60.1 °F 73% 30.09 in 10.0 mi North 9.2 mph - 0.00 in Rain Light Rain
3:54 PM 68.0 °F 61.0 °F 78% 30.07 in 8.0 mi NE 8.1 mph - 0.03 in Rain Light Rain
4:54 PM 66.9 °F 62.1 °F 84% 30.06 in 10.0 mi NNE 6.9 mph - 0.02 in Rain Light Rain
5:54 PM 66.9 °F 61.0 °F 81% 30.05 in 10.0 mi NNE 9.2 mph - 0.00 in   Overcast
6:54 PM 66.9 °F 61.0 °F 81% 30.06 in 10.0 mi NE 9.2 mph - N/A   Overcast
7:49 PM 66.2 °F 60.8 °F 83% 30.06 in 10.0 mi NE 9.2 mph - N/A   Overcast
7:54 PM 66.9 °F 59.0 °F 76% 30.06 in 10.0 mi NE 9.2 mph - N/A   Overcast
8:54 PM 66.9 °F 59.0 °F 76% 30.06 in 10.0 mi NNE 10.4 mph - N/A   Overcast
9:38 PM 66.2 °F 57.2 °F 73% 30.07 in 10.0 mi NE 11.5 mph - N/A   Overcast
9:50 PM 66.2 °F 57.2 °F 73% 30.08 in 10.0 mi NE 9.2 mph - N/A   Overcast
9:54 PM 66.9 °F 57.9 °F 73% 30.07 in 10.0 mi NE 10.4 mph - N/A   Overcast
10:13 PM 66.2 °F 59.0 °F 78% 30.08 in 10.0 mi NE 13.8 mph - N/A   Overcast
10:23 PM 66.2 °F 59.0 °F 78% 30.08 in 10.0 mi NE 11.5 mph - N/A   Overcast
10:54 PM 66.9 °F 59.0 °F 76% 30.06 in 10.0 mi NE 9.2 mph - N/A   Overcast
11:09 PM 66.2 °F 59.0 °F 78% 30.07 in 10.0 mi NE 8.1 mph - N/A   Overcast
11:54 PM 64.9 °F 60.1 °F 84% 30.05 in 10.0 mi NE 13.8 mph - N/A   Mostly Cloudy